Air Resources Laboratory banner image
Air Resources Laboratory web site National Oceanic and Atmospheric Administration (NOAA)

co roundup


Office: BOU

ASUS45 KBOU 202110
RWRCO

WEATHER ROUNDUP FOR COLORADO
NATIONAL WEATHER SERVICE PUEBLO CO
200 PM MST TUE FEB 20 2018

NOTE: "FAIR" INDICATES FEW OR NO CLOUDS BELOW 12000 FEET WITH NO
SIGNIFICANT WEATHER AND/OR OBSTRUCTIONS TO VISIBILITY.

COZ001>005-013-030-031-202200-
...NORTHWEST COLORADO...

CITY           SKY/WX    TMP DP  RH WIND       PRES   REMARKS
CRAIG          CLOUDY    14   4  64 CALM      29.96R
HAYDEN         FAIR      11   5  77 SW7       29.94R WCI   0
MEEKER         FAIR      20   5  52 W7        29.92S WCI  11
RABBIT EARS PA NOT AVBL
STEAMBOAT SPGS FAIR      15   2  58 CALM      29.90R
WALDEN         FAIR      14  -4  44 W17G24    29.81R WCI  -3
$$

COZ006>008-011-202200-
...WEST CENTRAL VALLEYS...

CITY           SKY/WX    TMP DP  RH WIND       PRES   REMARKS
GRAND JUNCTION FAIR      30  15  53 NW3       29.98F
MONTROSE       CLOUDY    23  17  78 VRB5      29.98S WCI  17
EAGLE          CLOUDY    21   7  54 SW16G24   29.91R WCI   7
RIFLE          FAIR      23  10  57 E6        29.95S WCI  16
DELTA          NOT AVBL
NUCLA          CLOUDY    30  19  64 W13       29.98S WCI  20
$$

COZ017>023-064>068-202200-
...SOUTHWEST COLORADO...

CITY           SKY/WX    TMP DP  RH WIND       PRES   REMARKS
DURANGO        PTSUNNY   25  11  55 W10       29.94S WCI  15
CORTEZ         CLOUDY    29  13  51 W13       29.96S WCI  19
PAGOSA SPRINGS PTSUNNY   23   8  52 S13       29.91S WCI  11
TELLURIDE      PTSUNNY   17  -6  35 SW8G21    29.83F WCI   7
WOLF CREEK PAS CLOUDY     0  -2  92 S25G36    29.76R WCI -25
$$

COZ009-010-012-014-032>034-037-058>063-202200-
...CENTRAL COLORADO...

CITY           SKY/WX    TMP DP  RH WIND       PRES   REMARKS
ASPEN          LGT SNOW  16   9  74 N12       29.84R WCI   3
BUENA VISTA    CLOUDY    22  -6  28 SW15G24   29.80R WCI   9
COPPER MTN     SNOW       5  -9  51 W28G43    29.63S VSB 1/2 WCI -18
BERTHOUD PASS  CLOUDY    -6 -15  65 W25G33    29.59S HAZE    WCI -32
COTTONWOOD PAS CLOUDY    19  -9  27 SW14G31   29.73R WCI   6
GUNNISON       FAIR      22   1  40 W18G26    29.85  WCI   7
KREMMLING      LGT SNOW  21  12  68 NW6       29.86R WCI  14
LEADVILLE      CLOUDY    10   0  63 VRB3      29.72R
MONARCH PASS     N/A      1  -4  78 W25G35    29.77R WCI -22
SALIDA         CLOUDY    26   1  33 W13G18    29.90R WCI  15
SUNLIGHT       LGT SNOW   3   0  85 SW6       29.79R VSB 3/4 WCI  -8
WILKERSON PASS CLOUDY    10   0  61 SW14G25   29.70R WCI  -5
$$

COZ069>075-202200-
...SAN LUIS VALLEY/SANGRE DE CRISTO MOUNTAINS...

CITY           SKY/WX    TMP DP  RH WIND       PRES   REMARKS
ALAMOSA        FAIR      30  -6  21 SW23G31   29.84R WCI  17
DEL NORTE      FAIR      24   2  38 W21G28    29.83R WCI  10
LA VETA PASS   FAIR      23   1  39 S37G66    29.81S WCI   4
SAGUACHE       PTSUNNY   28   0  29 NW12G18   29.81R WCI  18
$$

COZ035-036-038>040-202200-
...NORTHERN COLORADO FRONT RANGE...

CITY           SKY/WX    TMP DP  RH WIND       PRES   REMARKS
DENVER INTL AP PTSUNNY   11   3  70 SE5       29.94R WCI   3
DMNS CITY PARK NOT AVBL
AURORA         PTSUNNY   12   5  73 SE3       29.93R
FRONT RANGE AP PTSUNNY   12   5  73 E3        29.95R
ERIE MUNI ARPT CLOUDY    13   2  63 NE7       30.04R WCI   2
BOULDER MUN AP CLOUDY    10   3  72 CALM      29.96R
CENTENNIAL     PTSUNNY   17   6  62 NE3       29.90R
BROOMFIELD     PTSUNNY   12   5  73 CALM      29.94R
LOVELAND       FAIR      22   8  55 S6        29.99S WCI  14
LONGMONT       PTSUNNY   15   2  56 CALM      30.00R
$$

COZ041-046-047-076>085-087-088-202200-
...PIKES PEAK/PALMER DIVIDE AND SOUTHERN FOOTHILLS...

CITY           SKY/WX    TMP DP  RH WIND       PRES   REMARKS
COLO. SPRINGS  LGT SNOW  16  12  84 SE6       29.89R FOG     WCI   7
A. F. ACADEMY  PTSUNNY   19  11  69 S6        29.84R WCI  11
SCHRIEVER AFB  NOT AVBL
CHEYENNE MTN   NOT AVBL
ELLICOTT         N/A    N/A N/A N/A CALM      29.87S
FALCON         FAIR      20  12  72 MISG      29.86R
FORT CARSON    CLOUDY    19  14  79 SE7       29.88S WCI  10
LIMON          FAIR      17   7  64 N8        29.94R WCI   7
MONUMENT HILL  PTSUNNY   14  10  85 NE6       29.84R WCI   5
CANON CITY     CLOUDY    25  18  74 E8        29.90S WCI  16
WALSENBURG     CLOUDY    25  19  80 N9        29.85S WCI  15
TRINIDAD       FAIR      27  18  69 NE13G18   29.87F WCI  16
$$

COZ042>045-048>051-090-091-202200-
...NORTHEAST COLORADO...

CITY           SKY/WX    TMP DP  RH WIND       PRES   REMARKS
GREELEY ARPT   FAIR      12  -1  56 S5        30.03S WCI   4
AKRON          FAIR      10  -1  61 NW9       30.02R WCI  -3
BURLINGTON     FAIR      14   1  56 N16       30.03R WCI  -2
WRAY           FAIR      19   3  49 N15       30.09R WCI   5
YUMA           NOT AVBL
STERLING       FAIR      16   1  53 N7        30.06S WCI   6
HOLYOKE        FAIR      19   3  49 N16       30.09R WCI   5
FORT MORGAN    CLOUDY    14   0  54 W3        30.04R
$$

COZ086-089-092>099-202200-
...SOUTHEAST COLORADO...

CITY           SKY/WX    TMP DP  RH WIND       PRES   REMARKS
PUEBLO         FAIR      20  13  74 E7        29.96S WCI  11
LA JUNTA       FAIR      22   8  55 VRB7      30.02S WCI  13
LAMAR          FAIR      26   5  40 NE7       30.04R WCI  18
SPRINGFIELD      N/A     26   6  42 NE14G20   29.98S WCI  14
$$



ASUS45 KBOU 202110
RWRCO

WEATHER ROUNDUP FOR COLORADO
NATIONAL WEATHER SERVICE DENVER/BOULDER CO
200 PM MST TUE FEB 20 2018

NOTE: "FAIR" INDICATES FEW OR NO CLOUDS BELOW 12000 FEET WITH NO
SIGNIFICANT WEATHER AND/OR OBSTRUCTIONS TO VISIBILITY.

COZ001>005-013-030-031-202200-
...NORTHWEST COLORADO...

CITY           SKY/WX    TMP DP  RH WIND       PRES   REMARKS
CRAIG          CLOUDY    14   4  64 CALM      29.96R
HAYDEN         FAIR      11   5  77 SW7       29.94R WCI   0
MEEKER         FAIR      20   5  52 W7        29.92S WCI  11
RANGELY        FAIR      20   8  57 CALM      30.01S
RABBIT EARS PA CLOUDY     3   0  85 W10G21    29.69R FOG     WCI -12
STEAMBOAT SPGS FAIR      15   2  58 CALM      29.90R
WALDEN         FAIR      14  -4  44 W17G24    29.81R WCI  -3
$$

COZ006>008-011-202200-
...WEST CENTRAL VALLEYS...

CITY           SKY/WX    TMP DP  RH WIND       PRES   REMARKS
GRAND JUNCTION FAIR      30  15  53 NW3       29.98F
MONTROSE       CLOUDY    23  17  78 VRB5      29.98S WCI  17
EAGLE          CLOUDY    21   7  54 SW16G24   29.91R WCI   7
RIFLE          FAIR      23  10  57 E6        29.95S WCI  16
DELTA          CLOUDY    32   9  37 W14G22    29.97R WCI  22
NUCLA          CLOUDY    30  19  64 W13       29.98S WCI  20
$$

COZ017>023-064>068-202200-
...SOUTHWEST COLORADO...

CITY           SKY/WX    TMP DP  RH WIND       PRES   REMARKS
DURANGO        PTSUNNY   25  11  55 W10       29.94S WCI  15
CORTEZ         CLOUDY    29  13  51 W13       29.96S WCI  19
PAGOSA SPRINGS PTSUNNY   23   8  52 S13       29.91S WCI  11
TELLURIDE      PTSUNNY   17  -6  35 SW8G21    29.83F WCI   7
WOLF CREEK PAS CLOUDY     0  -2  92 S25G36    29.76R WCI -25
$$

COZ009-010-012-014-032>034-037-058>063-202200-
...CENTRAL COLORADO...

CITY           SKY/WX    TMP DP  RH WIND       PRES   REMARKS
ASPEN          LGT SNOW  16   9  74 N12       29.84R WCI   3
BUENA VISTA    CLOUDY    22  -6  28 SW15G24   29.80R WCI   9
COPPER MTN     SNOW       5  -9  51 W28G43    29.63S VSB 1/2 WCI -18
BERTHOUD PASS  CLOUDY    -6 -15  65 W25G33    29.59S HAZE    WCI -32
COTTONWOOD PAS CLOUDY    19  -9  27 SW14G31   29.73R WCI   6
GUNNISON       FAIR      22   1  40 W18G26    29.85  WCI   7
GRANBY         CLOUDY    15   1  53 W6        29.81R WCI   6
KREMMLING      LGT SNOW  21  12  68 NW6       29.86R WCI  14
LEADVILLE      CLOUDY    10   0  63 VRB3      29.72R
MONARCH PASS     N/A      1  -4  78 W25G35    29.77R WCI -22
SALIDA         CLOUDY    26   1  33 W13G18    29.90R WCI  15
SUNLIGHT       LGT SNOW   3   0  85 SW6       29.79R VSB 3/4 WCI  -8
WILKERSON PASS CLOUDY    10   0  61 SW14G25   29.70R WCI  -5
$$

COZ069>075-202200-
...SAN LUIS VALLEY/SANGRE DE CRISTO MOUNTAINS...

CITY           SKY/WX    TMP DP  RH WIND       PRES   REMARKS
ALAMOSA        FAIR      30  -6  21 SW23G31   29.84R WCI  17
DEL NORTE      FAIR      24   2  38 W21G28    29.83R WCI  10
LA VETA PASS   FAIR      23   1  39 S37G66    29.81S WCI   4
SAGUACHE       PTSUNNY   28   0  29 NW12G18   29.81R WCI  18
$$

COZ035-036-038>040-202200-
...NORTHERN COLORADO FRONT RANGE...

CITY           SKY/WX    TMP DP  RH WIND       PRES   REMARKS
DENVER INTL AP PTSUNNY   11   3  70 SE5       29.94R WCI   3
AURORA         PTSUNNY   12   5  73 SE3       29.93R
FRONT RANGE AP PTSUNNY   12   5  73 E3        29.95R
ERIE MUNI ARPT CLOUDY    13   2  63 NE7       30.04R WCI   2
BOULDER MUN AP CLOUDY    10   3  72 CALM      29.96R
CENTENNIAL     PTSUNNY   17   6  62 NE3       29.90R
BROOMFIELD     PTSUNNY   12   5  73 CALM      29.94R
FORT COLLINS   FAIR      22   8  55 S6        29.99S WCI  14
LONGMONT       PTSUNNY   15   2  56 CALM      30.00R
$$

COZ041-046-047-076>085-087-088-202200-
...PIKES PEAK/PALMER DIVIDE AND SOUTHERN FOOTHILLS...

CITY           SKY/WX    TMP DP  RH WIND       PRES   REMARKS
COLO. SPRINGS  LGT SNOW  16  12  84 SE6       29.89R FOG     WCI   7
A. F. ACADEMY  PTSUNNY   19  11  69 S6        29.84R WCI  11
SCHRIEVER AFB  NOT AVBL
CHEYENNE MTN   LGT SNOW  14  13  95 SE10      29.78R WCI   1
ELLICOTT         N/A    N/A N/A N/A CALM      29.87S
FALCON         FAIR      20  12  72 MISG      29.86R
FORT CARSON    CLOUDY    19  14  79 SE7       29.88S WCI  10
LIMON          FAIR      17   7  64 N8        29.94R WCI   7
MONUMENT HILL  PTSUNNY   14  10  85 NE6       29.84R WCI   5
CANON CITY     CLOUDY    25  18  74 E8        29.90S WCI  16
WALSENBURG     NOT AVBL
TRINIDAD       FAIR      27  18  69 NE13G18   29.87F WCI  16
$$

COZ042>045-048>051-090-091-202200-
...NORTHEAST COLORADO...

CITY           SKY/WX    TMP DP  RH WIND       PRES   REMARKS
GREELEY ARPT   FAIR      12  -1  56 S5        30.03S WCI   4
AKRON          FAIR      10  -1  61 NW9       30.02R WCI  -3
BURLINGTON     FAIR      14   1  56 N16       30.03R WCI  -2
WRAY           FAIR      19   3  49 N15       30.09R WCI   5
YUMA           NOT AVBL
STERLING       FAIR      16   1  53 N7        30.06S WCI   6
HOLYOKE        FAIR      19   3  49 N16       30.09R WCI   5
FORT MORGAN    CLOUDY    14   0  54 W3        30.04R
$$

COZ086-089-092>099-202200-
...SOUTHEAST COLORADO...

CITY           SKY/WX    TMP DP  RH WIND       PRES   REMARKS
PUEBLO         FAIR      20  13  74 E7        29.96S WCI  11
LA JUNTA       FAIR      22   8  55 VRB7      30.02S WCI  13
LAMAR          FAIR      26   5  40 NE7       30.04R WCI  18
SPRINGFIELD      N/A     26   6  42 NE14G20   29.98S WCI  14
$$